Powrót do katalogu

SL-8 DEB

AktywnyLEO
NORAD 21160·DEBRIS·🇷🇺 Russia

Wystrzelony Feb 12, 1991 z Plesetsk Cosmodrome

Loading…

Następne Przeloty (najbliższe 24 godziny)

TLE

ŚwieżeSource: Space-Track

Epoka: Sep 14, 2026, 12:18 UTC

1 21160U 91009X   26257.51301931 -.00000011  00000-0  39610-4 0  9990
2 21160  74.0392 288.4295 0131710 338.9484 175.1192 12.24771983588468

Śledź SL-8 DEB w czasie rzeczywistym z AllMySat

Download on the App Store